Weather History for Pinedale, WY

Change the Weather History Date:

Sunday, January 5, 2014

  Actual Average (KBPI) Record (KBPI)
Temperature  
Mean Temperature 4 °F 11 °F  
Max Temperature 12 °F 26 °F 45 °F (2012)
Min Temperature -5 °F -2 °F -25 °F (1993)
Degree Days  
Heating Degree Days 62 54  
Month to date heating degree days 270  
Since 1 July heating degree days 4709  
Cooling Degree Days 0 0  
Month to date cooling degree days 0  
Year to date cooling degree days 0  
Moisture  
Dew Point -2 °F    
Average Humidity 75    
Maximum Humidity 92    
Minimum Humidity 56    
Precipitation  
Precipitation 0.00 in 0.01 in 0.11 in (1981)
Month to date precipitation 0.05  
Year to date precipitation 0.05  
Sea Level Pressure  
Sea Level Pressure 30.14 in    
Wind  
Wind Speed 10 mph (WNW)    
Max Wind Speed 24 mph    
Max Gust Speed 33 mph    
Visibility 8 miles    
Events Snow    
T = Trace of Precipitation, MM = Missing Value Source: NWS Daily Summary

Daily Weather History Graph

Daily Weather History Graph

Search for Another Location

Airport:

Trip Planner

Search our weather history database for the weather conditions in past years. The results will help you decide how hot, cold, wet, or windy it might be!

Date:

Astronomy

Jan. 05, 2014 Rise Set
Actual Time 7:49 AM MST 4:59 PM MST
Civil Twilight 7:17 AM MST 5:31 PM MST
Nautical Twilight 6:42 AM MST 6:07 PM MST
Astronomical Twilight 6:08 AM MST 6:41 PM MST
Moon 10:25 AM MST (1/5) 10:39 PM MST (1/5)
Length of Visible Light 10h 13m
Length of Day
9h 09m
Waxing Crescent, 25% of the Moon is Illuminated
Jan 5
Waxing Crescent
Jan 7
First Quarter
Jan 15
Full
Jan 23
Last Quarter
Jan 30
New

Hourly Weather History & Observations

Time (MST) Temp. Windchill Dew Point Humidity Pressure Visibility Wind Dir Wind Speed Gust Speed Precip Events Conditions
12:15 AM 3.2 °F - -0.4 °F 85% 29.97 in 5.0 mi Calm Calm - N/A   Overcast
12:35 AM 3.2 °F - 1.4 °F 92% 29.97 in 10.0 mi Calm Calm - N/A   Mostly Cloudy
12:55 AM 3.2 °F - -0.4 °F 85% 29.97 in 5.0 mi Calm Calm - N/A   Overcast
1:15 AM 3.2 °F - 1.4 °F 92% 29.97 in 2.5 mi Calm Calm - N/A Snow Light Snow
1:35 AM 3.2 °F - 1.4 °F 92% 29.98 in 1.5 mi Calm Calm - N/A Snow Light Snow
1:55 AM 3.2 °F - 1.4 °F 92% 29.99 in 2.0 mi Calm Calm - N/A Snow Light Snow
2:15 AM 5.0 °F -4.1 °F 3.2 °F 92% 30.00 in 3.0 mi West 4.6 mph - N/A Snow Light Snow
2:35 AM 6.8 °F -7.8 °F 3.2 °F 85% 30.00 in 10.0 mi WNW 10.4 mph - N/A   Scattered Clouds
2:55 AM 6.8 °F -11.3 °F -0.4 °F 72% 30.00 in 10.0 mi NW 16.1 mph - N/A   Scattered Clouds
3:15 AM 5.0 °F -13.6 °F -2.2 °F 72% 30.01 in 10.0 mi WNW 16.1 mph - N/A   Clear
3:35 AM 6.8 °F -14.3 °F -0.4 °F 72% 30.01 in 7.0 mi NW 23.0 mph - N/A   Clear
3:55 AM 5.0 °F -13.0 °F -0.4 °F 78% 30.03 in 10.0 mi WNW 15.0 mph - N/A   Clear
4:15 AM 5.0 °F -13.6 °F -0.4 °F 78% 30.03 in 10.0 mi WNW 16.1 mph - N/A   Clear
4:35 AM 3.2 °F -13.9 °F -2.2 °F 78% 30.04 in 10.0 mi WNW 12.7 mph - N/A   Clear
4:55 AM 1.4 °F -14.5 °F -4.0 °F 78% 30.05 in 10.0 mi NW 10.4 mph - N/A   Clear
5:15 AM -2.2 °F -16.8 °F -5.8 °F 85% 30.06 in 10.0 mi WNW 8.1 mph - N/A   Clear
5:35 AM -0.4 °F -15.7 °F -5.8 °F 78% 30.06 in 10.0 mi West 9.2 mph - N/A   Clear
5:55 AM -2.2 °F -18.0 °F -5.8 °F 85% 30.06 in 10.0 mi West 9.2 mph - N/A   Clear
6:15 AM -4.0 °F -19.0 °F -9.4 °F 78% 30.07 in 10.0 mi WNW 8.1 mph - N/A   Clear
6:35 AM -5.8 °F -23.4 °F -9.4 °F 84% 30.07 in 10.0 mi West 10.4 mph - N/A   Clear
6:55 AM -4.0 °F -21.2 °F -7.6 °F 85% 30.08 in 10.0 mi West 10.4 mph - N/A   Clear
7:15 AM -4.0 °F -19.0 °F -7.6 °F 85% 30.08 in 10.0 mi West 8.1 mph - N/A   Scattered Clouds
7:35 AM -4.0 °F -20.2 °F -7.6 °F 85% 30.09 in 10.0 mi West 9.2 mph - N/A   Clear
7:55 AM -5.8 °F -22.4 °F -9.4 °F 84% 30.09 in 10.0 mi West 9.2 mph - N/A   Clear
8:15 AM -5.8 °F -23.4 °F -9.4 °F 84% 30.11 in 10.0 mi WNW 10.4 mph - N/A   Clear
8:35 AM -4.0 °F -20.2 °F -7.6 °F 85% 30.11 in 10.0 mi WNW 9.2 mph - N/A   Clear
8:55 AM -2.2 °F -19.9 °F -5.8 °F 85% 30.13 in 10.0 mi WNW 11.5 mph - N/A   Clear
9:15 AM -0.4 °F -19.2 °F -5.8 °F 78% 30.13 in 10.0 mi WNW 13.8 mph - N/A   Clear
9:35 AM 3.2 °F -13.1 °F -4.0 °F 72% 30.13 in 10.0 mi WNW 11.5 mph - N/A   Clear
9:55 AM 5.0 °F -10.8 °F -2.2 °F 72% 30.14 in 10.0 mi WNW 11.5 mph - N/A   Clear
10:15 AM 6.8 °F -9.3 °F -0.4 °F 72% 30.15 in 10.0 mi WNW 12.7 mph - N/A   Clear
10:35 AM 8.6 °F -4.7 °F 1.4 °F 73% 30.15 in 10.0 mi WNW 9.2 mph - N/A   Clear
10:55 AM 10.4 °F -6.0 °F 3.2 °F 73% 30.15 in 10.0 mi WNW 15.0 mph - N/A   Clear
11:15 AM 12.2 °F -5.8 °F 5.0 °F 73% 30.15 in 10.0 mi NW 19.6 mph 24.2 mph N/A   Mostly Cloudy
11:35 AM 12.2 °F -5.8 °F 5.0 °F 73% 30.15 in 3.0 mi NW 19.6 mph - N/A   Haze
11:55 AM 12.2 °F -5.3 °F 5.0 °F 73% 30.15 in 3.0 mi NW 18.4 mph - N/A   Haze
12:15 PM 12.2 °F -4.3 °F 6.8 °F 79% 30.14 in 2.0 mi NNW 16.1 mph - N/A Snow Light Snow
12:35 PM 12.2 °F -6.3 °F 6.8 °F 79% 30.15 in 0.2 mi NW 20.7 mph 24.2 mph N/A Snow Snow
12:55 PM 10.4 °F -9.1 °F 6.8 °F 85% 30.14 in 0.2 mi NNW 21.9 mph - N/A Snow Light Snow
1:15 PM 12.2 °F -6.7 °F 6.8 °F 79% 30.14 in 0.2 mi NW 21.9 mph 27.6 mph N/A Snow Snow
1:35 PM 10.4 °F -9.9 °F 6.8 °F 85% 30.15 in 0.2 mi NW 24.2 mph 33.4 mph N/A Snow Heavy Snow
1:55 PM 10.4 °F -8.6 °F 6.8 °F 85% 30.15 in 0.2 mi NW 20.7 mph - N/A Snow Heavy Snow
2:15 PM 10.4 °F -9.1 °F 6.8 °F 85% 30.16 in 0.2 mi NW 21.9 mph 26.5 mph N/A Snow Light Snow
2:35 PM 10.4 °F -8.2 °F 5.0 °F 79% 30.16 in 0.5 mi WNW 19.6 mph 26.5 mph N/A Snow Light Snow
2:55 PM 12.2 °F -6.3 °F 5.0 °F 73% 30.18 in 0.8 mi NW 20.7 mph 26.5 mph N/A Snow Light Snow
3:15 PM 12.2 °F -5.3 °F 5.0 °F 73% 30.18 in 0.8 mi NW 18.4 mph - N/A Snow Light Snow
3:35 PM 12.2 °F -4.8 °F 3.2 °F 67% 30.19 in 2.0 mi WNW 17.3 mph - N/A Snow Light Snow
3:55 PM 10.4 °F -7.7 °F 3.2 °F 73% 30.21 in 2.5 mi NW 18.4 mph - N/A   Haze
4:15 PM 10.4 °F -6.6 °F 1.4 °F 67% 30.21 in 7.0 mi NW 16.1 mph - N/A   Overcast
4:35 PM 10.4 °F -5.4 °F -0.4 °F 62% 30.22 in 10.0 mi NNW 13.8 mph - N/A   Mostly Cloudy
4:55 PM 10.4 °F -6.0 °F -2.2 °F 57% 30.23 in 10.0 mi NW 15.0 mph 20.7 mph N/A   Scattered Clouds
5:15 PM 8.6 °F -7.7 °F -4.0 °F 57% 30.23 in 10.0 mi NW 13.8 mph 21.9 mph N/A   Clear
5:35 PM 8.6 °F -8.9 °F -4.0 °F 57% 30.23 in 10.0 mi WNW 16.1 mph - N/A   Clear
5:55 PM 5.0 °F -11.6 °F -5.8 °F 61% 30.23 in 10.0 mi WNW 12.7 mph - N/A   Clear
6:15 PM 1.4 °F -16.1 °F -5.8 °F 72% 30.24 in 10.0 mi WNW 12.7 mph - N/A   Clear
6:35 PM 1.4 °F -16.1 °F -7.6 °F 66% 30.24 in 10.0 mi WNW 12.7 mph - N/A   Clear
6:55 PM 1.4 °F -16.9 °F -7.6 °F 66% 30.25 in 10.0 mi WNW 13.8 mph - N/A   Clear
7:15 PM 1.4 °F -16.1 °F -7.6 °F 66% 30.24 in 10.0 mi WNW 12.7 mph - N/A   Clear
7:35 PM 1.4 °F -15.3 °F -7.6 °F 66% 30.24 in 10.0 mi WNW 11.5 mph - N/A   Clear
7:55 PM 1.4 °F -16.9 °F -7.6 °F 66% 30.23 in 10.0 mi West 13.8 mph - N/A   Clear
8:15 PM 1.4 °F -16.9 °F -7.6 °F 66% 30.23 in 10.0 mi WNW 13.8 mph - N/A   Clear
8:35 PM 1.4 °F -16.9 °F -7.6 °F 66% 30.24 in 10.0 mi WNW 13.8 mph - N/A   Clear
8:55 PM -0.4 °F -19.2 °F -9.4 °F 66% 30.23 in 10.0 mi WNW 13.8 mph - N/A   Clear
9:15 PM -0.4 °F -19.2 °F -9.4 °F 66% 30.23 in 10.0 mi WNW 13.8 mph - N/A   Clear
9:35 PM -0.4 °F -18.4 °F -9.4 °F 66% 30.23 in 10.0 mi WNW 12.7 mph - N/A   Clear
9:55 PM -0.4 °F -18.4 °F -9.4 °F 66% 30.23 in 10.0 mi WNW 12.7 mph - N/A   Clear
10:15 PM -0.4 °F -19.2 °F -9.4 °F 66% 30.22 in 10.0 mi WNW 13.8 mph - N/A   Clear
10:35 PM 1.4 °F -17.6 °F -9.4 °F 61% 30.23 in 10.0 mi NW 15.0 mph - N/A   Clear
10:55 PM 3.2 °F -17.6 °F -9.4 °F 56% 30.22 in 10.0 mi WNW 19.6 mph - N/A   Clear
11:15 PM 3.2 °F -16.5 °F -9.4 °F 56% 30.22 in 10.0 mi WNW 17.3 mph - N/A   Clear
11:35 PM 3.2 °F -16.5 °F -7.6 °F 61% 30.21 in 10.0 mi WNW 17.3 mph - N/A   Clear
11:55 PM 3.2 °F -17.1 °F -7.6 °F 61% 30.21 in 10.0 mi WNW 18.4 mph - N/A   Clear